Retour au catalogue

ARIANE 2 DEB

ActifGTO
NORAD 42485·DEBRIS·🇫🇷 France

Lancé Jan 27, 1989 depuis Guiana Space Centre

Loading…

TLE

PériméSource: Space-Track

Époque: Sep 14, 2026, 05:45 UTC

1 42485U 89006CM  26257.23965538 -.00000108  00000-0  00000-0 0  9999
2 42485   9.0788  23.1988 6728774 213.0797  54.4795  2.17739633100509

Suivez ARIANE 2 DEB en temps réel avec AllMySat

Download on the App Store